KF4IRC Weather Reports


time (UTC)temp
F
wind
direction
speed
knots
gust
knots
rain 1hr
in
rain 24hr
in
rain mn
in
humidity
%
barometer
mb
20260506062038 72 311 0.0 0.0 0.00 0.00 0.00 68 1013.8
20260506060514 72 22 0.0 0.0 0.00 0.00 0.00 68 1014.0
20260506050528 71 189 0.0 0.0 0.00 0.00 0.00 69 1014.5
20260506045018 71 189 0.0 0.0 0.00 0.00 0.00 69 1014.6
20260506043516 71 191 0.0 0.0 0.00 0.00 0.00 69 1014.6
20260506042018 71 154 0.0 0.0 0.00 0.00 0.00 69 1014.7
20260506040514 71 154 0.0 0.0 0.00 0.00 0.00 69 1014.7
20260506035033 71 154 0.0 0.0 0.00 0.00 0.00 69 1014.9
20260506033520 72 154 0.0 0.0 0.00 0.00 0.00 70 1015.1
20260506032025 72 154 0.0 0.0 0.00 0.00 0.00 69 1015.1
20260506030535 72 152 0.0 0.0 0.00 0.00 0.00 69 1015.1
20260506025032 72 155 0.0 0.0 0.00 0.00 0.00 69 1015.0
20260506023550 72 155 0.0 0.0 0.00 0.00 0.00 70 1015.0
20260506022032 72 117 0.0 0.0 0.00 0.00 0.00 70 1014.6
20260506020519 73 119 0.0 0.0 0.00 0.00 0.00 70 1014.6
20260506015021 73 119 0.0 0.0 0.00 0.00 0.00 70 1014.6
20260506013540 73 30 0.0 0.0 0.00 0.00 0.00 70 1014.7
20260506012041 74 217 0.0 0.0 0.00 0.00 0.00 70 1014.7
20260506010521 74 128 0.0 0.0 0.00 0.00 0.00 70 1014.5
20260506005022 74 133 0.0 0.0 0.00 0.00 0.00 70 1014.5
20260506003517 75 131 0.9 0.0 0.00 0.00 0.00 70 1014.5
20260506002033 75 144 0.9 0.0 0.00 0.00 0.00 70 1014.3